| time (UTC) | temp F | wind direction | speed MPH | gust MPH | rain 1hr in | rain 24hr in | rain mn in | humidity % | barometer mb |
| 20260506194554 | 54 | 291 | 2.0 | 0.0 | 0.00 | 0.00 | 0.34 | 56 | 1010.9 |
| 20260506193045 | 55 | 345 | 3.0 | 0.0 | 0.00 | 0.00 | 0.34 | 57 | 1010.9 |
| 20260506191529 | 55 | 287 | 3.0 | 0.0 | 0.00 | 0.00 | 0.34 | 57 | 1010.7 |
| 20260506190021 | 55 | 280 | 3.0 | 0.0 | 0.00 | 0.00 | 0.34 | 58 | 1010.4 |
| 20260506184509 | 56 | 178 | 3.0 | 0.0 | 0.00 | 0.00 | 0.34 | 56 | 1010.5 |
| 20260506183052 | 57 | 311 | 3.0 | 0.0 | 0.00 | 0.00 | 0.34 | 56 | 1010.8 |
| 20260506181551 | 57 | 5 | 4.0 | 0.0 | 0.00 | 0.00 | 0.34 | 53 | 1010.6 |
| 20260506180045 | 56 | 337 | 4.0 | 0.0 | 0.00 | 0.00 | 0.34 | 57 | 1010.5 |
| 20260506174533 | 57 | 85 | 3.0 | 0.0 | 0.00 | 0.00 | 0.34 | 59 | 1010.6 |
| 20260506173028 | 57 | 267 | 4.0 | 0.0 | 0.00 | 0.00 | 0.34 | 60 | 1010.6 |
| 20260506171522 | 57 | 311 | 4.0 | 0.0 | 0.00 | 0.00 | 0.34 | 59 | 1010.4 |
| 20260506170008 | 56 | 39 | 3.0 | 0.0 | 0.00 | 0.00 | 0.34 | 62 | 1010.5 |
| 20260506164614 | 55 | 301 | 3.0 | 0.0 | 0.00 | 0.00 | 0.34 | 60 | 1010.5 |
| 20260506163047 | 55 | 319 | 3.0 | 0.0 | 0.00 | 0.00 | 0.34 | 68 | 1010.6 |
| 20260506161535 | 54 | 227 | 3.0 | 0.0 | 0.00 | 0.00 | 0.34 | 69 | 1010.5 |
| 20260506160028 | 53 | 267 | 3.0 | 0.0 | 0.00 | 0.00 | 0.34 | 70 | 1010.7 |
| 20260506154521 | 53 | 267 | 2.0 | 0.0 | 0.00 | 0.00 | 0.34 | 70 | 1010.3 |
| 20260506153013 | 52 | 360 | 3.0 | 0.0 | 0.00 | 0.00 | 0.34 | 70 | 1010.1 |
| 20260506151556 | 52 | 63 | 2.0 | 0.0 | 0.00 | 0.00 | 0.34 | 73 | 1010.1 |
| 20260506150046 | 51 | 32 | 3.0 | 0.0 | 0.00 | 0.00 | 0.34 | 73 | 1010.3 |
| 20260506144533 | 50 | 294 | 2.0 | 0.0 | 0.00 | 0.00 | 0.34 | 76 | 1010.0 |
| 20260506143032 | 50 | 304 | 3.0 | 0.0 | 0.00 | 0.00 | 0.34 | 77 | 1009.8 |
| 20260506141510 | 48 | 277 | 3.0 | 0.0 | 0.00 | 0.00 | 0.34 | 78 | 1009.5 |
| 20260506140101 | 48 | 49 | 3.0 | 0.0 | 0.00 | 0.00 | 0.34 | 81 | 1009.3 |
| 20260506140003 | 48 | 38 | 3.0 | 0.0 | 0.00 | 0.00 | 0.34 | 81 | 1009.3 |
| 20260506134551 | 47 | 14 | 2.0 | 0.0 | 0.00 | 0.00 | 0.34 | 86 | 1009.3 |
| 20260506133043 | 46 | 344 | 1.0 | 0.0 | 0.00 | 0.00 | 0.34 | 91 | 1009.2 |
| 20260506131536 | 45 | 266 | 1.0 | 0.0 | 0.00 | 0.00 | 0.34 | 92 | 1009.4 |
| 20260506130016 | 45 | 259 | 1.0 | 0.0 | 0.00 | 0.00 | 0.34 | 93 | 1009.2 |
| 20260506124504 | 45 | 240 | 2.0 | 0.0 | 0.00 | 0.00 | 0.34 | 94 | 1008.8 |
| 20260506123047 | 45 | 315 | 2.0 | 0.0 | 0.00 | 0.00 | 0.34 | 95 | 1008.5 |
| 20260506121546 | 45 | 292 | 1.0 | 0.0 | 0.00 | 0.00 | 0.34 | 96 | 1008.1 |
| 20260506120055 | 45 | 11 | 1.0 | 0.0 | 0.00 | 0.00 | 0.34 | 96 | 1007.9 |
| 20260506114516 | 45 | 37 | 1.0 | 0.0 | 0.00 | 0.00 | 0.34 | 96 | 1007.4 |
| 20260506113008 | 45 | 53 | 1.0 | 0.0 | 0.00 | 0.00 | 0.34 | 96 | 1006.9 |
| 20260506111559 | 45 | 27 | 1.0 | 0.0 | 0.00 | 0.00 | 0.34 | 96 | 1006.8 |
| 20260506110054 | 45 | 14 | 2.0 | 0.0 | 0.00 | 0.00 | 0.34 | 96 | 1007.4 |
| 20260506104541 | 45 | 57 | 2.0 | 0.0 | 0.00 | 0.00 | 0.34 | 96 | 1006.6 |
| 20260506103031 | 46 | 336 | 1.0 | 0.0 | 0.00 | 0.00 | 0.34 | 96 | 1007.0 |
| 20260506101518 | 46 | 320 | 1.0 | 0.0 | 0.00 | 0.00 | 0.34 | 96 | 1006.6 |
| 20260506100006 | 45 | 277 | 1.0 | 0.0 | 0.00 | 0.00 | 0.34 | 96 | 1006.3 |
| 20260506094555 | 45 | 53 | 2.0 | 0.0 | 0.00 | 0.00 | 0.34 | 96 | 1005.5 |
| 20260506093047 | 45 | 69 | 3.0 | 0.0 | 0.00 | 0.00 | 0.34 | 96 | 1005.2 |
| 20260506091541 | 45 | 40 | 3.0 | 0.0 | 0.00 | 0.00 | 0.33 | 96 | 1005.7 |
| 20260506090029 | 45 | 34 | 2.0 | 0.0 | 0.00 | 0.00 | 0.33 | 96 | 1006.0 |
| 20260506084525 | 46 | 53 | 2.0 | 0.0 | 0.00 | 0.00 | 0.31 | 96 | 1006.0 |
| 20260506083012 | 46 | 9 | 2.0 | 0.0 | 0.00 | 0.00 | 0.28 | 96 | 1005.8 |
| 20260506081505 | 46 | 322 | 2.0 | 0.0 | 0.00 | 0.00 | 0.26 | 96 | 1005.7 |
| 20260506073036 | 46 | 295 | 3.0 | 0.0 | 0.00 | 0.00 | 0.25 | 96 | 1005.6 |
| 20260506071528 | 46 | 245 | 3.0 | 0.0 | 0.00 | 0.00 | 0.23 | 96 | 1005.4 |
| 20260506061550 | 47 | 340 | 3.0 | 0.0 | 0.00 | 0.00 | 0.11 | 96 | 1005.1 |
| 20260506044546 | 49 | 342 | 1.0 | 0.0 | 0.00 | 0.00 | 0.01 | 96 | 1005.2 |
| 20260506043021 | 49 | 22 | 1.0 | 0.0 | 0.00 | 0.00 | 0.00 | 96 | 1005.4 |
| 20260506041512 | 49 | 75 | 1.0 | 0.0 | 0.00 | 0.00 | 0.00 | 96 | 1005.4 |
| 20260506040058 | 49 | 60 | 1.0 | 0.0 | 0.00 | 0.00 | 0.00 | 96 | 1005.5 |
| 20260506034543 | 49 | 40 | 2.0 | 0.0 | 0.00 | 0.00 | 0.97 | 96 | 1005.7 |
| 20260506033035 | 49 | 28 | 2.0 | 0.0 | 0.00 | 0.00 | 0.97 | 95 | 1006.0 |
| 20260506031534 | 49 | 93 | 3.0 | 0.0 | 0.00 | 0.00 | 0.95 | 95 | 1006.1 |
| 20260506030115 | 50 | 15 | 3.0 | 0.0 | 0.00 | 0.00 | 0.92 | 95 | 1006.3 |
| 20260506024532 | 50 | 29 | 3.0 | 0.0 | 0.00 | 0.00 | 0.90 | 95 | 1006.1 |
| 20260506023017 | 50 | 360 | 3.0 | 0.0 | 0.00 | 0.00 | 0.87 | 95 | 1006.2 |
| 20260506021505 | 51 | 325 | 2.0 | 0.0 | 0.00 | 0.00 | 0.83 | 95 | 1006.2 |
| 20260506020051 | 52 | 188 | 2.0 | 0.0 | 0.00 | 0.00 | 0.80 | 94 | 1005.8 |
| 20260506014531 | 54 | 217 | 3.0 | 0.0 | 0.00 | 0.00 | 0.77 | 95 | 1005.2 |
| 20260506013024 | 56 | 5 | 3.0 | 0.0 | 0.00 | 0.00 | 0.75 | 94 | 1005.3 |
| 20260506011511 | 58 | 217 | 1.0 | 0.0 | 0.00 | 0.00 | 0.71 | 96 | 1005.1 |
| 20260506010005 | 58 | 217 | 3.0 | 0.0 | 0.00 | 0.00 | 0.68 | 95 | 1005.0 |
| 20260506004625 | 58 | 207 | 4.0 | 0.0 | 0.00 | 0.00 | 0.65 | 95 | 1005.1 |
| 20260506004501 | 58 | 234 | 4.0 | 0.0 | 0.00 | 0.00 | 0.65 | 95 | 1005.1 |
| 20260506003045 | 58 | 214 | 4.0 | 0.0 | 0.00 | 0.00 | 0.62 | 95 | 1004.8 |
| 20260506001535 | 58 | 223 | 4.0 | 0.0 | 0.00 | 0.00 | 0.56 | 95 | 1004.8 |
| 20260506000027 | 58 | 211 | 4.0 | 0.0 | 0.00 | 0.00 | 0.51 | 95 | 1004.8 |
| 20260505234527 | 58 | 211 | 4.0 | 0.0 | 0.00 | 0.00 | 0.49 | 95 | 1004.9 |
| 20260505233100 | 58 | 212 | 4.0 | 0.0 | 0.00 | 0.00 | 0.47 | 95 | 1005.0 |
| 20260505233002 | 58 | 211 | 4.0 | 0.0 | 0.00 | 0.00 | 0.47 | 95 | 1005.1 |
| 20260505231554 | 59 | 226 | 3.0 | 0.0 | 0.00 | 0.00 | 0.43 | 94 | 1005.4 |
| 20260505230042 | 59 | 209 | 3.0 | 0.0 | 0.00 | 0.00 | 0.39 | 94 | 1005.6 |
| 20260505224533 | 59 | 218 | 3.0 | 0.0 | 0.00 | 0.00 | 0.36 | 94 | 1005.7 |
| 20260505223020 | 59 | 225 | 2.0 | 0.0 | 0.00 | 0.00 | 0.33 | 94 | 1005.7 |
| 20260505221511 | 59 | 215 | 2.0 | 0.0 | 0.00 | 0.00 | 0.31 | 93 | 1005.6 |
| 20260505220138 | 59 | 233 | 3.0 | 0.0 | 0.00 | 0.00 | 0.30 | 92 | 1005.6 |
| 20260505220007 | 59 | 234 | 3.0 | 0.0 | 0.00 | 0.00 | 0.28 | 92 | 1005.6 |
| 20260505214554 | 60 | 209 | 5.0 | 0.0 | 0.00 | 0.00 | 0.25 | 90 | 1005.5 |
| 20260505213032 | 62 | 261 | 3.0 | 0.0 | 0.00 | 0.00 | 0.12 | 84 | 1005.1 |
| 20260505211520 | 64 | 225 | 3.0 | 0.0 | 0.00 | 0.00 | 0.02 | 78 | 1004.1 |
| 20260505210021 | 66 | 248 | 2.0 | 0.0 | 0.00 | 0.00 | 0.01 | 72 | 1004.1 |
| 20260505204524 | 66 | 243 | 4.0 | 0.0 | 0.00 | 0.00 | 0.01 | 72 | 1004.2 |
| 20260505203012 | 66 | 227 | 3.0 | 0.0 | 0.00 | 0.00 | 0.01 | 69 | 1004.4 |
| 20260505201508 | 66 | 219 | 5.0 | 0.0 | 0.00 | 0.00 | 0.01 | 69 | 1004.6 |
| 20260505200107 | 66 | 214 | 5.0 | 0.0 | 0.00 | 0.00 | 0.01 | 70 | 1004.8 |
| 20260505200002 | 67 | 217 | 5.0 | 0.0 | 0.00 | 0.00 | 0.01 | 70 | 1004.8 |